| time (UTC) | temp C | wind direction | speed KPH | gust KPH | rain 1hr cm | rain 24hr cm | rain mn cm | humidity % | barometer mb |
| 20260507073217 | 8 | 302 | 1.6 | 3.2 | 0.00 | 6.81 | 0.18 | 95 | 1014.3 |
| 20260507071712 | 8 | 204 | 1.6 | 4.8 | 0.00 | 6.81 | 0.18 | 95 | 1014.3 |
| 20260507070222 | 8 | 9 | 0.0 | 4.8 | 0.00 | 6.81 | 0.18 | 95 | 1014.0 |
| 20260507064721 | 7 | 36 | 1.6 | 4.8 | 0.00 | 6.81 | 0.18 | 97 | 1013.7 |
| 20260507063218 | 7 | 307 | 0.0 | 0.0 | 0.00 | 6.81 | 0.18 | 96 | 1013.7 |
| 20260507061717 | 7 | 307 | 0.0 | 0.0 | 0.00 | 6.81 | 0.18 | 97 | 1013.7 |
| 20260507060212 | 6 | 319 | 0.0 | 0.0 | 0.00 | 7.70 | 0.18 | 97 | 1013.7 |
| 20260507054728 | 6 | 319 | 0.0 | 3.2 | 0.00 | 7.70 | 0.18 | 96 | 1013.6 |
| 20260507053229 | 6 | 36 | 0.0 | 8.0 | 0.00 | 7.70 | 0.18 | 97 | 1013.5 |
| 20260507051722 | 5 | 50 | 4.8 | 9.7 | 0.00 | 7.70 | 0.18 | 96 | 1013.2 |
| 20260507050218 | 5 | 51 | 3.2 | 6.4 | 0.00 | 8.10 | 0.18 | 96 | 1013.2 |
| 20260507044719 | 5 | 31 | 1.6 | 8.0 | 0.00 | 8.10 | 0.18 | 96 | 1013.1 |
| 20260507043215 | 5 | 93 | 1.6 | 6.4 | 0.00 | 8.10 | 0.18 | 96 | 1013.1 |
| 20260507041717 | 5 | 49 | 1.6 | 6.4 | 0.20 | 8.10 | 0.18 | 96 | 1012.8 |
| 20260507040211 | 5 | 35 | 4.8 | 9.7 | 0.20 | 8.10 | 0.18 | 96 | 1012.8 |
| 20260507034725 | 5 | 55 | 4.8 | 9.7 | 0.20 | 8.10 | 0.18 | 96 | 1012.9 |
| 20260507033224 | 6 | 52 | 4.8 | 6.4 | 0.20 | 8.10 | 0.18 | 96 | 1013.1 |
| 20260507031719 | 6 | 27 | 1.6 | 3.2 | 0.10 | 7.90 | 0.13 | 95 | 1013.2 |
| 20260507030215 | 6 | 67 | 3.2 | 8.0 | 0.30 | 7.90 | 0.13 | 96 | 1012.9 |
| 20260507024730 | 6 | 66 | 4.8 | 6.4 | 0.41 | 7.90 | 0.13 | 96 | 1013.1 |
| 20260507023226 | 6 | 12 | 1.6 | 4.8 | 0.51 | 7.90 | 0.13 | 96 | 1012.9 |
| 20260507021722 | 6 | 293 | 0.0 | 0.0 | 0.41 | 7.80 | 0.10 | 96 | 1013.1 |
| 20260507020219 | 6 | 81 | 0.0 | 0.0 | 0.20 | 8.00 | 0.05 | 96 | 1012.8 |
| 20260507014713 | 6 | 81 | 0.0 | 3.2 | 0.10 | 7.90 | 0.03 | 96 | 1012.4 |
| 20260507013214 | 6 | 81 | 0.0 | 3.2 | 0.00 | 7.80 | 0.00 | 96 | 1012.3 |
| 20260507011731 | 6 | 58 | 3.2 | 8.0 | 0.00 | 7.80 | 0.00 | 96 | 1011.9 |
| 20260507004713 | 6 | 60 | 0.0 | 6.4 | 0.00 | 8.31 | 0.00 | 96 | 1012.1 |
| 20260507003226 | 6 | 51 | 4.8 | 8.0 | 0.00 | 8.31 | 0.00 | 96 | 1012.4 |
| 20260507001728 | 6 | 65 | 0.0 | 3.2 | 0.00 | 8.31 | 0.00 | 96 | 1012.4 |
| 20260506234725 | 6 | 56 | 3.2 | 8.0 | 0.00 | 8.71 | 0.00 | 97 | 1012.4 |
| 20260506233227 | 6 | 59 | 4.8 | 6.4 | 0.00 | 8.71 | 0.00 | 97 | 1012.4 |
| 20260506231730 | 6 | 77 | 1.6 | 6.4 | 0.00 | 8.71 | 0.00 | 96 | 1012.4 |
| 20260506230211 | 6 | 70 | 3.2 | 4.8 | 0.00 | 8.71 | 0.00 | 96 | 1012.4 |
| 20260506224717 | 6 | 345 | 0.0 | 8.0 | 0.00 | 8.71 | 0.00 | 96 | 1012.3 |
| 20260506223218 | 6 | 37 | 6.4 | 9.7 | 0.00 | 8.71 | 0.00 | 96 | 1012.2 |
| 20260506221720 | 6 | 62 | 1.6 | 6.4 | 0.10 | 8.71 | 0.00 | 96 | 1012.4 |
| 20260506220225 | 6 | 53 | 8.0 | 17.7 | 0.10 | 9.19 | 2.21 | 95 | 1012.3 |
| 20260506214724 | 6 | 42 | 4.8 | 9.7 | 0.10 | 9.19 | 2.21 | 95 | 1012.2 |
| 20260506213209 | 6 | 74 | 4.8 | 8.0 | 0.10 | 9.19 | 2.21 | 95 | 1012.5 |
| 20260506211710 | 6 | 84 | 3.2 | 9.7 | 0.00 | 9.09 | 2.18 | 95 | 1012.5 |
| 20260506210211 | 6 | 50 | 6.4 | 16.1 | 0.00 | 9.91 | 2.18 | 95 | 1012.4 |
| 20260506204717 | 6 | 42 | 6.4 | 14.5 | 0.00 | 9.91 | 2.18 | 95 | 1012.4 |
| 20260506203218 | 6 | 58 | 4.8 | 12.9 | 0.00 | 9.91 | 2.18 | 95 | 1012.5 |
| 20260506201722 | 6 | 57 | 6.4 | 11.3 | 0.00 | 9.91 | 2.18 | 95 | 1012.5 |
| 20260506200223 | 6 | 39 | 3.2 | 11.3 | 0.00 | 10.01 | 2.18 | 95 | 1012.7 |
| 20260506194724 | 6 | 288 | 6.4 | 17.7 | 0.00 | 10.01 | 2.18 | 95 | 1012.5 |
| 20260506193210 | 6 | 44 | 6.4 | 16.1 | 0.00 | 10.01 | 2.18 | 95 | 1011.9 |
| 20260506191710 | 6 | 65 | 8.0 | 11.3 | 0.00 | 10.01 | 2.18 | 94 | 1011.7 |
| 20260506190211 | 7 | 89 | 4.8 | 12.9 | 0.10 | 10.21 | 2.18 | 94 | 1011.7 |
| 20260506184713 | 6 | 49 | 11.3 | 17.7 | 0.10 | 10.21 | 2.18 | 94 | 1011.1 |
| 20260506183215 | 6 | 42 | 9.7 | 19.3 | 0.30 | 10.21 | 2.18 | 93 | 1011.0 |
| 20260506181720 | 6 | 55 | 14.5 | 20.9 | 0.61 | 10.21 | 2.18 | 94 | 1011.0 |
| 20260506180219 | 6 | 342 | 3.2 | 8.0 | 0.99 | 10.11 | 2.16 | 95 | 1010.9 |
| 20260506174716 | 6 | 80 | 8.0 | 14.5 | 1.30 | 10.11 | 2.16 | 95 | 1010.6 |
| 20260506173221 | 6 | 28 | 6.4 | 14.5 | 2.21 | 9.91 | 2.11 | 95 | 1010.5 |
| 20260506171721 | 6 | 20 | 6.4 | 14.5 | 2.90 | 9.60 | 2.03 | 93 | 1011.0 |
| 20260506170222 | 6 | 14 | 3.2 | 16.1 | 3.61 | 9.09 | 1.91 | 92 | 1010.8 |
| 20260506164726 | 6 | 63 | 1.6 | 30.6 | 3.40 | 8.79 | 1.83 | 90 | 1010.3 |
| 20260506163228 | 7 | 142 | 1.6 | 20.9 | 2.31 | 7.70 | 1.55 | 90 | 1010.6 |
| 20260506161712 | 9 | 160 | 8.0 | 24.1 | 1.30 | 6.60 | 1.27 | 91 | 1009.4 |
| 20260506160213 | 10 | 15 | 8.0 | 17.7 | 0.30 | 5.51 | 0.97 | 91 | 1008.8 |
| 20260506154712 | 10 | 81 | 6.4 | 19.3 | 0.30 | 5.51 | 0.97 | 90 | 1008.7 |
| 20260506153216 | 10 | 136 | 6.4 | 12.9 | 0.30 | 5.51 | 0.97 | 89 | 1008.8 |
| 20260506151717 | 11 | 202 | 3.2 | 12.9 | 0.20 | 5.41 | 0.94 | 82 | 1009.0 |
| 20260506150222 | 12 | 18 | 6.4 | 12.9 | 0.00 | 5.51 | 0.89 | 83 | 1008.9 |
| 20260506144719 | 12 | 350 | 1.6 | 11.3 | 0.00 | 5.51 | 0.89 | 81 | 1009.2 |
| 20260506143219 | 12 | 340 | 3.2 | 11.3 | 0.00 | 5.51 | 0.89 | 83 | 1009.0 |
| 20260506141722 | 12 | 348 | 1.6 | 9.7 | 0.00 | 5.51 | 0.89 | 82 | 1009.4 |
| 20260506140222 | 12 | 78 | 4.8 | 9.7 | 0.00 | 5.51 | 0.89 | 84 | 1009.8 |
| 20260506134724 | 11 | 346 | 1.6 | 8.0 | 0.00 | 5.51 | 0.89 | 84 | 1010.1 |
| 20260506133228 | 12 | 71 | 6.4 | 11.3 | 0.00 | 5.51 | 0.89 | 82 | 1010.3 |
| 20260506131729 | 12 | 207 | 1.6 | 12.9 | 0.00 | 5.51 | 0.89 | 85 | 1010.3 |
| 20260506130233 | 11 | 279 | 8.0 | 19.3 | 0.10 | 5.51 | 0.89 | 88 | 1010.3 |
| 20260506124713 | 11 | 183 | 1.6 | 8.0 | 0.10 | 5.51 | 0.89 | 88 | 1010.2 |
| 20260506123213 | 10 | 331 | 0.0 | 9.7 | 0.10 | 5.51 | 0.89 | 90 | 1010.1 |
| 20260506121718 | 11 | 346 | 0.0 | 12.9 | 0.10 | 5.51 | 0.89 | 86 | 1010.1 |
| 20260506120225 | 11 | 302 | 0.0 | 6.4 | 0.00 | 5.59 | 0.86 | 88 | 1010.0 |
| 20260506114724 | 11 | 286 | 3.2 | 4.8 | 0.00 | 5.59 | 0.86 | 88 | 1010.0 |
| 20260506113229 | 10 | 74 | 1.6 | 4.8 | 0.00 | 5.59 | 0.86 | 89 | 1010.1 |
| 20260506111710 | 10 | 355 | 4.8 | 9.7 | 0.00 | 5.59 | 0.86 | 88 | 1010.3 |
| 20260506110212 | 10 | 74 | 4.8 | 12.9 | 0.00 | 5.69 | 0.86 | 91 | 1010.7 |
| 20260506104712 | 9 | 342 | 3.2 | 11.3 | 0.00 | 5.69 | 0.86 | 92 | 1010.8 |
| 20260506103211 | 8 | 44 | 4.8 | 9.7 | 0.10 | 5.69 | 0.86 | 93 | 1010.6 |
| 20260506101715 | 8 | 54 | 6.4 | 14.5 | 0.30 | 5.69 | 0.86 | 91 | 1010.9 |
| 20260506100214 | 8 | 68 | 6.4 | 17.7 | 0.51 | 5.99 | 0.86 | 92 | 1010.9 |
| 20260506094720 | 8 | 83 | 8.0 | 19.3 | 0.79 | 5.99 | 0.86 | 93 | 1010.7 |
| 20260506093220 | 7 | 214 | 3.2 | 8.0 | 0.71 | 5.89 | 0.84 | 94 | 1010.8 |
| 20260506091722 | 8 | 64 | 1.6 | 12.9 | 0.51 | 5.69 | 0.79 | 92 | 1010.7 |
| 20260506090226 | 8 | 76 | 8.0 | 16.1 | 0.30 | 6.81 | 0.74 | 88 | 1010.1 |
| 20260506084727 | 8 | 91 | 6.4 | 22.5 | 0.00 | 6.50 | 0.66 | 85 | 1010.1 |
| 20260506083211 | 9 | 118 | 4.8 | 19.3 | 0.00 | 6.50 | 0.66 | 86 | 1010.0 |
| 20260506081712 | 9 | 136 | 4.8 | 14.5 | 0.00 | 6.50 | 0.66 | 85 | 1010.0 |
| 20260506080212 | 9 | 69 | 9.7 | 17.7 | 0.00 | 7.11 | 0.66 | 84 | 1009.8 |